カタログに戻る

COSMOS 886 DEB

運用中UNKNOWN
NORAD 9955·DEBRIS·🇷🇺 Russia

打ち上げ Dec 27, 1976 から Baikonur Cosmodrome

Loading…

次のパス (今後24時間)

TLE

最新Source: Space-Track

元期: Sep 14, 2026, 10:42 UTC

1 09955U 76126AV  26257.44639458 -.00000030  00000-0  22005-4 0  9992
2 09955  65.8438 268.6071 1058058 130.2174 239.6402 12.64077070   526

AllMySatでCOSMOS 886 DEBをリアルタイム追跡

Download on the App Store